Location: Cabeza Gorda
(40.0667°N, 4.9667°W)
Time: 19:12:23
(UTC+00:00)

Cosmos 1833 Rocket - Pass Details

Date: 15 January 2026
Orbit: 831 x 839 km, 71.0° (Epoch: 11 February)

Event Time Altitude Azimuth Distance (km) Brightness Sun altitude
Exits shadow 06:51:05 12° 296° (WNW) 2,338 4.3 -9.4°
Maximum altitude 06:54:04 17° 261° (W) 1,989 4.1 -8.9°
Drops below altitude 10° 06:57:33 10° 222° (SW) 2,437 4.9 -8.3°
Sets 07:00:48 0° 203° (SSW) 3,364 5.8 -7.7°
